Location: Kott?ru
(16.6209°N, 80.6208°E)
Time: 21:00:26
(UTC+00:00)

H-2A R/B - Pass Details

Date: 18 September 2020
Orbit: 734 x 836 km, 98.2° (Epoch: 27 October)

Event Time Altitude Azimuth Distance (km) Brightness Sun altitude
Exits shadow 14:06:56 20° 168° (SSE) 1,659 3.5 -22.3°
Maximum altitude 14:10:23 89° 249° (WSW) 739 1.8 -23.1°
Drops below altitude 10° 14:15:19 10° 348° (NNW) 2,251 4.7 -24.3°
Sets 14:17:37 0° 348° (NNW) 3,185 5.5 -24.9°
